STARLINK-38090, 69994

Orbit data source: Space-Track

STARLINK-38090, 69994 is a payload satellite owned by SpaceX/Seattle (US) in SSO that was launched on Sat, 11 Jul 2026 UTC via an FALCON 9 launch vehicle from the Air Force Western Test Range (AFWTR). Payload-class satellites include a variety of spacecraft equipped with specific instruments for various scientific and technological missions. These include communications satellites like Starlink; space stations such as the ISS; scientific satellites like the Hubble; Earth observation satellites from companies like Planet Labs, Umbra, and HawkEye 360; GPS; miniature CubeSats for education and research; and military/defense satellites.

Loading next visibility...
Identifier
69994, 2026-159V
Orbit
SSO
Country
Flag of USUS
Related business
Manufacturer
SpaceX/Seattle
Mission
Operational spacecraft
Bus & Motor
STARLINK V2MO, Unknown motor
Mass
575 kg wet, ~530 kg dry
Launch date (UTC)
2026-07-11 (1 month ago)
Launch vehicle
FALCON 9
Launch site
Air Force Western Test Range (AFWTR)
Object type
Payload
Rocket body
Debris
Shape & HBR
BOX + PAN, 17.7 m
Radar Cross Section
Large (>1 m²)

Expand to show TLE details & history
Last TLE update: 14 hours ago

TLE from 14 hours ago
0 STARLINK-38090
1 69994U 26159V   26228.52700837  .00157970  00000-0  10397-2 0  9993
2 69994  97.2837  68.9576 0001298  45.9599 314.1773 15.75208277  6968
Epoch: 2026-08-16T12:38Z
TLE epoch observation values (Epoch: 2026-08-16T12:38:53.523Z)
Latitude
-0°
Longitude
-85.68767°
Altitude
346.599 km
Speed
7.701 km/s
True Right ascension
04h 35m 49s
True Declination
0° 00' 00"
Sunlit
Object was in daylight at epoch
Visualization orbit readout
Latitude
Unknown
Longitude
Unknown
Altitude
Unknown
Speed
Unknown
Apparent Right ascension
Unknown
Apparent Declination
Unknown
Sunlit
N/A
Visualization observer readout
Local Sidereal Time
16:54:38
Azimuth
Unknown
Elevation
Unknown
Doppler factor
Unknown
Orbital elements
Apogee altitude
341.798 km
Perigee altitude
340.054 km
Semi-major axis
6,719.063 km
Eccentricity
0.00013
Inclination
97.2837°
RAAN
68.9576°
Arg. of periapsis
45.9599°
True anomaly
314.16663°
Mean anomaly
314.1773°
Eccentric anomaly
314.17197°
Mean motion
3.94076 °/min
Orbital period
91.35 mins
BSTAR
0.0010397
Loading maneuver chart data...
Computing Atmospheric mass density...
Loading historical data...
Loading historical data...
Loading historical data...
Loading historical data...
Loading historical data...
Loading historical data...
Loading historical data...

Documentation

Showing up to 5 results
|